[[{"header":{"parameterUnit":"m.s-1","parameterCategory":1,"la1":30.2991,"la2":30.254,"lo1":-89.0895,"lo2":-89.0444,"dx":0.0017,"dy":0.0017,"nx":28,"ny":28,"refTime":"2023-01-12T15:00:00:Z","depth":0,"parameterNumber":2,"parameterNumberName":"U-component_of_WINDS"},"data":[0,0,0,0,0,0,0,0,0,0,0,0,0,0,0,0,0,0,0,0,0,0,0,0,0,0,0,0,0,0,0,0,0,0,0,0,0,0,0,0,0,0,0,0,0,0,0,0,0,0,0,0,0,0,0,0,0,0,3.7297,3.7297,0,3.7346,3.7346,3.7347,3.7311,3.7309,3.7308,3.7306,3.7355,3.7358,3.7361,0,0,0,0,0,0,0,0,0,0,0,0,0,3.7172,3.7175,3.7297,3.7297,3.7298,3.7346,3.7346,3.7347,3.7311,3.7309,3.7307,3.7306,3.7354,3.7358,3.7361,0,0,0,0,0,0,0,0,0,0,0,0,0,3.7224,3.7175,3.7296,3.7286,3.7285,3.7346,3.7346,3.7347,3.7312,3.7309,3.7307,3.7305,3.7353,3.7357,3.7361,3.7435,0,0,3.7374,3.7376,0,0,0,0,0,0,0,0,3.7221,3.7229,3.7287,3.7287,3.7286,3.732,3.732,3.7376,3.7312,3.7302,3.7306,3.7303,3.7345,3.735,3.7364,3.7437,3.7439,3.7375,3.7377,3.7379,3.738,0,0,0,0,0,0,0,3.7218,3.7227,3.7316,3.7288,3.7287,3.7279,3.7283,3.7331,3.7336,3.7302,3.73,3.7306,3.7345,3.736,3.7365,3.744,3.7374,3.7378,3.7381,3.7382,3.7578,3.758,0,0,0,0,0,0,3.7215,3.7224,3.7314,3.7317,3.7247,3.7283,3.7288,3.7311,3.7335,3.7337,3.7308,3.7304,3.7354,3.736,3.7367,3.7455,3.7379,3.7383,3.7385,3.7575,3.7578,3.7581,0,0,0,0,0,0,3.7213,3.7224,3.7312,3.727,3.7281,3.7288,3.7314,3.7314,3.7329,3.734,3.7341,3.7323,3.7353,3.7361,3.7419,3.7457,3.7385,3.7388,3.7572,3.7576,3.758,3.7633,0,0,0,0,0,0,3.7209,3.7223,3.725,3.7271,3.7283,3.7363,3.7316,3.7316,3.7337,3.7332,3.7354,3.7356,3.7352,3.7413,3.7423,3.7461,3.7392,3.7568,3.7574,3.7578,3.7627,3.7638,3.7647,0,0,0,0,0,3.7205,3.7262,3.7252,3.7263,3.7318,3.7365,3.7372,3.7367,3.734,3.7368,3.7375,3.7355,3.7451,3.7419,3.743,3.747,3.7566,3.7572,3.7578,3.7623,3.7636,3.7647,0,0,0,0,0,0,3.7245,3.7265,3.7253,3.7319,3.7341,3.7359,3.7394,3.738,3.741,3.7404,3.7396,3.7401,3.7462,3.7472,3.7436,3.7544,3.7504,3.7513,3.7535,3.7547,3.7556,3.7553,3.7395,0,0,0,0,0,3.7262,3.7299,3.7314,3.7371,3.7383,3.7387,3.7407,3.7402,3.7424,3.7433,3.7444,3.7466,3.7502,3.7525,3.7558,3.7629,3.7634,3.7662,3.7672,3.768,3.7687,3.7728,3.7741,3.7601,3.7601,3.7601,0,0,3.7296,3.7311,3.7335,3.738,3.7396,3.7435,3.7395,3.7437,3.7467,3.7439,3.7495,3.7504,3.7528,3.7594,3.7623,3.7604,3.7728,3.7688,3.7694,3.7697,3.7735,3.7749,3.776,3.7605,3.7604,3.7604,0,0,3.7378,3.7394,3.7444,3.7462,3.7487,3.749,3.7503,3.7524,3.7529,3.7585,3.7566,3.7601,3.7662,3.7681,3.7698,3.7792,3.7775,3.7803,3.7853,3.7893,3.7904,3.7913,3.7948,3.796,3.781,3.781,3.781,0,3.7417,3.7476,3.7471,3.7516,3.7537,3.7515,3.7566,3.7584,3.7619,3.7634,3.7612,3.7689,3.7704,3.7774,3.7798,3.7812,3.7827,3.78,3.7903,3.7912,3.7921,3.7954,3.7967,3.7814,3.7813,3.7813,3.7813,0,3.7524,3.7565,3.7602,3.7638,3.7663,3.7711,3.7713,3.7739,3.7733,3.7738,3.7797,3.7814,3.7851,3.7868,3.7861,3.7938,3.7926,3.7904,3.7864,3.7938,3.7969,3.7981,3.7818,3.7817,3.7816,3.7815,0,0,3.763,3.7665,3.7679,3.7696,3.7724,3.7756,3.7804,3.7841,3.7864,3.789,3.7931,3.7984,3.7965,3.7985,3.798,3.8015,3.809,3.7989,3.7989,3.8007,3.8178,3.8194,3.8209,3.8079,3.8082,3.8084,3.8176,0,3.7715,3.7798,3.7796,3.7874,3.7913,3.7895,3.7936,3.7959,3.7966,3.8001,3.8009,3.8047,3.8018,3.803,3.8064,3.8073,3.8124,3.8067,3.8117,3.8119,3.8111,3.8224,3.8241,3.8327,3.8188,3.819,3.8191,0,3.7824,3.7855,3.7937,3.7962,3.7978,3.8016,3.8051,3.8084,3.811,3.8113,3.8138,3.8128,3.8178,3.8138,3.8207,3.8168,3.8189,3.8197,3.82,3.8204,3.8159,3.8232,3.8355,3.8368,3.821,3.8208,3.8207,0,3.7894,3.7957,3.8014,3.8029,3.806,3.8087,3.8101,3.8125,3.8148,3.818,3.8195,3.8232,3.8252,3.828,3.8282,3.8252,3.8352,3.8311,3.8356,3.8356,3.8377,3.8375,3.8505,3.8391,3.8391,3.839,3.839,0,3.7988,3.8039,3.8047,3.8082,3.8139,3.8137,3.8194,3.8206,3.8228,3.8266,3.8252,3.8288,3.8288,3.8325,3.8326,3.8384,3.8393,3.8397,3.8397,3.8398,3.8398,3.8411,3.8405,3.8394,3.8393,3.8392,3.8392,0,3.8076,3.8083,3.8144,3.817,3.8177,3.8218,3.824,3.8274,3.8282,3.833,3.8341,3.8353,3.8396,3.8401,3.845,3.8451,3.8521,3.8514,3.8512,3.8511,3.8556,3.8552,3.8698,3.8718,3.8591,3.8592,3.8593,0,3.8135,3.8174,3.8205,3.8229,3.8245,3.8285,3.831,3.8311,3.8337,3.8372,3.8402,3.8444,3.8478,3.8548,3.856,3.8599,3.8593,3.8642,3.8599,3.86,3.8595,3.8592,3.8597,3.865,3.8652,3.8653,3.8654,0,3.824,3.8243,3.8279,3.8317,3.8347,3.8377,3.8405,3.8427,3.8431,3.8462,3.8506,3.8533,3.8585,3.8627,3.8666,3.8681,3.8669,3.8668,3.868,3.8681,3.8679,3.8682,3.8535,3.8664,3.8663,3.8662,3.8661,3.8661,3.8316,3.8351,3.8378,3.8419,3.8441,3.8469,3.8503,3.8515,3.8553,3.8596,3.8594,3.8644,3.8671,3.8722,3.874,3.8779,3.8763,3.8781,3.8785,3.879,3.8795,3.8674,3.8786,3.8786,3.8786,3.8786,3.8785,0,3.8421,3.8438,3.8476,3.8517,3.8551,3.8538,3.8569,3.8597,3.8641,3.8668,3.8702,3.8755,3.8797,3.8814,3.8856,3.8884,3.8879,3.8895,3.8892,3.8896,3.8806,3.8792,3.8898,3.8898,3.8898,3.8898,3.8898,3.8897,3.8479,3.8538,3.8544,3.8614,3.8631,3.868,3.8699,3.8725,3.8747,3.8806,3.8841,3.8853,3.8877,3.892,3.8958,3.8962,3.8978,3.8996,3.8998,3.8914,3.8902,3.8891,3.8877,3.9,3.9,3.9084,3.9085,3.9086]},{"header":{"parameterUnit":"m.s-1","parameterCategory":1,"la1":30.2991,"la2":30.254,"lo1":-89.0895,"lo2":-89.0444,"dx":0.0017,"dy":0.0017,"nx":28,"ny":28,"refTime":"2023-01-12T15:00:00:Z","depth":0,"parameterNumber":3,"parameterNumberName":"V-component_of_WINDS"},"data":[0,0,0,0,0,0,0,0,0,0,0,0,0,0,0,0,0,0,0,0,0,0,0,0,0,0,0,0,0,0,0,0,0,0,0,0,0,0,0,0,0,0,0,0,0,0,0,0,0,0,0,0,0,0,0,0,0,0,-7.2304,-7.2306,0,-7.2445,-7.2447,-7.2449,-7.2403,-7.24,-7.2397,-7.2394,-7.2536,-7.2543,-7.2549,0,0,0,0,0,0,0,0,0,0,0,0,0,-7.1993,-7.1999,-7.2304,-7.2306,-7.2307,-7.2445,-7.2447,-7.2449,-7.2403,-7.2399,-7.2396,-7.2392,-7.2534,-7.2542,-7.255,0,0,0,0,0,0,0,0,0,0,0,0,0,-7.2131,-7.2001,-7.2304,-7.2301,-7.2302,-7.2445,-7.2447,-7.2449,-7.2404,-7.2399,-7.2395,-7.2391,-7.2531,-7.2541,-7.2551,-7.2703,0,0,-7.2581,-7.2585,0,0,0,0,0,0,0,0,-7.2123,-7.2142,-7.23,-7.2302,-7.2303,-7.2402,-7.239,-7.2534,-7.2405,-7.2365,-7.2394,-7.2388,-7.2495,-7.2508,-7.2544,-7.271,-7.2716,-7.2582,-7.2588,-7.2592,-7.2595,0,0,0,0,0,0,0,-7.2113,-7.2136,-7.236,-7.2302,-7.2304,-7.2293,-7.2307,-7.2417,-7.2454,-7.2368,-7.2365,-7.2383,-7.2495,-7.2535,-7.2547,-7.2718,-7.2582,-7.259,-7.2597,-7.2601,-7.3018,-7.3022,0,0,0,0,0,0,-7.2103,-7.2128,-7.2355,-7.2364,-7.22,-7.2302,-7.2318,-7.2375,-7.2453,-7.246,-7.2387,-7.238,-7.252,-7.2535,-7.2552,-7.2737,-7.2592,-7.2601,-7.2607,-7.3012,-7.3019,-7.3024,0,0,0,0,0,0,-7.2097,-7.2124,-7.235,-7.2245,-7.2273,-7.2312,-7.2376,-7.238,-7.2419,-7.2466,-7.2473,-7.2421,-7.2517,-7.2538,-7.2666,-7.2741,-7.2606,-7.2615,-7.3006,-7.3014,-7.3021,-7.3107,0,0,0,0,0,0,-7.2088,-7.2122,-7.218,-7.2247,-7.2279,-7.2463,-7.2381,-7.2386,-7.2437,-7.243,-7.25,-7.2507,-7.2515,-7.2652,-7.2676,-7.2752,-7.2623,-7.3,-7.301,-7.3019,-7.3098,-7.3116,-7.3133,0,0,0,0,0,-7.2077,-7.2198,-7.2183,-7.2211,-7.2353,-7.2467,-7.2485,-7.2493,-7.2443,-7.2502,-7.2533,-7.2505,-7.2729,-7.2665,-7.2693,-7.2772,-7.2995,-7.3007,-7.3018,-7.309,-7.3113,-7.3132,0,0,0,0,0,0,-7.2137,-7.2206,-7.2191,-7.2337,-7.2397,-7.2459,-7.2534,-7.2516,-7.259,-7.2581,-7.2586,-7.2602,-7.2735,-7.2766,-7.2694,-7.2925,-7.2855,-7.2872,-7.29,-7.2922,-7.2939,-7.2929,-7.2631,0,0,0,0,0,-7.2168,-7.2255,-7.231,-7.2434,-7.2465,-7.2494,-7.2544,-7.2545,-7.2606,-7.2631,-7.267,-7.2731,-7.2815,-7.287,-7.295,-7.3102,-7.3117,-7.317,-7.3188,-7.3202,-7.3217,-7.3301,-7.3326,-7.3062,-7.3062,-7.3062,0,0,-7.2231,-7.228,-7.2334,-7.2447,-7.2493,-7.2584,-7.2516,-7.2613,-7.268,-7.2645,-7.277,-7.2801,-7.2869,-7.301,-7.3074,-7.3041,-7.3293,-7.3217,-7.3228,-7.3235,-7.3316,-7.3341,-7.3363,-7.307,-7.3068,-7.3067,0,0,-7.2393,-7.2439,-7.2547,-7.2595,-7.2667,-7.2686,-7.2712,-7.2778,-7.2798,-7.2923,-7.2899,-7.2978,-7.3123,-7.3172,-7.3216,-7.3399,-7.3377,-7.3425,-7.3517,-7.3599,-7.362,-7.3638,-7.3705,-7.3729,-7.344,-7.344,-7.344,0,-7.2463,-7.2599,-7.2605,-7.2706,-7.2757,-7.2731,-7.2841,-7.2887,-7.298,-7.3016,-7.2977,-7.3159,-7.3202,-7.3356,-7.3401,-7.3437,-7.3467,-7.3417,-7.3617,-7.3635,-7.3652,-7.3716,-7.3741,-7.3446,-7.3445,-7.3444,-7.3444,0,-7.2682,-7.2776,-7.2855,-7.2948,-7.3007,-7.3112,-7.3135,-7.3194,-7.319,-7.3214,-7.3342,-7.3394,-7.3484,-7.352,-7.3517,-7.3674,-7.3651,-7.3615,-7.3544,-7.3683,-7.3743,-7.3767,-7.3454,-7.3452,-7.345,-7.3449,0,0,-7.2885,-7.2981,-7.301,-7.3053,-7.313,-7.3203,-7.3307,-7.3397,-7.3449,-7.3514,-7.3602,-7.3725,-7.3693,-7.3743,-7.3744,-7.3816,-7.396,-7.3771,-7.3773,-7.3805,-7.4138,-7.4166,-7.4194,-7.3945,-7.395,-7.3954,-7.4133,0,-7.3055,-7.3239,-7.3248,-7.3415,-7.3503,-7.3481,-7.3571,-7.3629,-7.3654,-7.3731,-7.3758,-7.3847,-7.3796,-7.3826,-7.3896,-7.3928,-7.4027,-7.3915,-7.4027,-7.4031,-7.4012,-7.4225,-7.4255,-7.4421,-7.4156,-7.416,-7.4163,0,-7.3277,-7.3351,-7.3528,-7.3594,-7.3631,-7.3713,-7.3797,-7.3872,-7.3936,-7.3949,-7.4007,-7.3999,-7.4105,-7.4031,-7.4179,-7.4102,-7.4149,-7.4171,-7.4178,-7.4189,-7.4106,-7.4243,-7.4474,-7.45,-7.4199,-7.4197,-7.4194,0,-7.3409,-7.3553,-7.3678,-7.3715,-7.3795,-7.3853,-7.3889,-7.395,-7.4004,-7.4077,-7.4112,-7.4196,-7.4242,-7.4307,-7.4322,-7.4267,-7.4471,-7.4397,-7.4485,-7.4485,-7.4529,-7.4526,-7.4772,-7.4558,-7.4557,-7.4557,-7.4556,0,-7.3598,-7.3707,-7.3739,-7.3815,-7.3937,-7.3947,-7.4067,-7.4099,-7.4154,-7.4236,-7.4221,-7.4298,-7.4313,-7.4394,-7.4406,-7.4527,-7.4548,-7.4562,-7.4564,-7.4564,-7.4562,-7.4595,-7.4584,-7.4563,-7.4562,-7.4561,-7.456,0,-7.3767,-7.3792,-7.3927,-7.3993,-7.4012,-7.4099,-7.4155,-7.4229,-7.4252,-7.4357,-7.4382,-7.4419,-7.4513,-7.4535,-7.4646,-7.4655,-7.4799,-7.4789,-7.4778,-7.4777,-7.4864,-7.4856,-7.514,-7.5179,-7.4938,-7.494,-7.4942,0,-7.3886,-7.397,-7.4045,-7.41,-7.4139,-7.4227,-7.4283,-7.4296,-7.4355,-7.4436,-7.45,-7.4593,-7.4668,-7.4821,-7.4857,-7.4943,-7.4936,-7.5029,-7.4948,-7.4946,-7.4939,-7.4934,-7.4943,-7.5045,-7.5048,-7.505,-7.5051,0,-7.4096,-7.4105,-7.4185,-7.4272,-7.4339,-7.4407,-7.4472,-7.4518,-7.454,-7.4606,-7.4704,-7.4762,-7.4878,-7.4971,-7.5057,-7.5094,-7.5077,-7.5077,-7.5102,-7.5103,-7.5093,-7.5101,-7.4821,-7.507,-7.5068,-7.5067,-7.5066,-7.5065,-7.4244,-7.4318,-7.4384,-7.4475,-7.4525,-7.4587,-7.466,-7.4694,-7.4775,-7.4871,-7.4874,-7.498,-7.5044,-7.5159,-7.52,-7.5284,-7.5255,-7.5291,-7.53,-7.5309,-7.5318,-7.508,-7.5299,-7.5299,-7.5298,-7.5298,-7.5298,0,-7.4454,-7.4495,-7.4579,-7.4672,-7.4744,-7.4722,-7.4794,-7.4855,-7.495,-7.5011,-7.5086,-7.5199,-7.5289,-7.5333,-7.5423,-7.5481,-7.5476,-7.5504,-7.5501,-7.551,-7.5338,-7.5308,-7.5507,-7.5507,-7.5507,-7.5507,-7.5507,-7.5507,-7.4572,-7.4697,-7.4713,-7.4863,-7.4903,-7.5009,-7.5051,-7.5108,-7.5158,-7.5285,-7.536,-7.5389,-7.5444,-7.5537,-7.562,-7.563,-7.5664,-7.5697,-7.5704,-7.5543,-7.5521,-7.5501,-7.5473,-7.5704,-7.5704,-7.5869,-7.5871,-7.5872]}]]